Location: Amon Carter Post Office
(32.8281°N, 97.0484°W)
Time: 02:48:44
(UTC+00:00)

Lacrosse 5 rocket - Pass Details

Date: 06 July 2022
Orbit: 456 x 628 km, 57.0° (Epoch: 09 August)

Event Time Altitude Azimuth Distance (km) Brightness Sun altitude
Rises 02:38:59 0° 321° (NW) 2,592 6.5 -11.3°
Reaches altitude 10° 02:41:06 10° 322° (NW) 1,733 5.2 -11.7°
Maximum altitude 02:45:01 88° 48° (NE) 537 1.2 -12.3°
Enters shadow 02:47:52 19° 142° (SE) 1,321 2.6 -12.8°
